Flag for Poland Weather past 2 weeks in Gdynia, Poland

Now
48 °F

Light rain. Partly sunny.


Feels Like: 44 °F
Forecast: 38 / 42 °F
Wind: 10 mph from West

Location: Gdansk-Rebiechowo

Current Time: Dec 19, 2014 at 3:33:58 PM

Latest Report: Dec 19, 2014 at 3:00 PM


Visibility: N/A

Pressure: 29.47 "Hg

Humidity: 87%

Dew point: 45 °F

Location of GdyniaLocation

Historic Weather in Gdynia — Graph

°F

Gdynia temperature yesterday

Maximum temperature yesterday: 48 °F (at 11:30 PM)
Minimum temperature yesterday: 34 °F (at 12:00 AM)
Average temperature yesterday: 40 °F

Past Weeks' High & Low Weather Summary

 TemperatureHumidityPressure
High52 °F (Dec 19, 9:30 AM)100% (Dec 4, 2:00 PM)30.30 "Hg (Dec 4, 2:00 PM)
Low27 °F (Dec 4, 8:00 PM)61% (Dec 17, 1:30 PM)29.24 "Hg (Dec 12, 10:30 PM)
Average36 °F91%29.84 "Hg
* Reported Dec 4 2:00 PM — Dec 19 2:30 PM, Gdynia, Weather by CustomWeather, © 2014

Note: Actual official high and low records may vary slightly from our data, if they occured in-between our weather recording intervals... More about our weather records

Advertising

Gdynia weather history for previous 24 hours

 ConditionsComfort  
Time TempWeatherWind HumidityBarometerVisibility
2:30 PM
Dec 19
48 °FLight rain. Broken clouds.10 mph94%29.45 "HgN/A
2:00 PM48 °FSprinkles. Broken clouds.16 mph94%29.45 "Hg4 mi
1:30 PM52 °FLight rain. Broken clouds.13 mph94%29.45 "Hg6 mi
1:00 PM52 °FLight rain. Partly sunny.14 mph94%29.45 "HgN/A
12:30 PM52 °FLight rain. Partly sunny.12 mph94%29.47 "Hg4 mi
12:00 PM52 °FLight rain. Partly sunny.12 mph94%29.47 "Hg4 mi
11:30 AM52 °FLight rain. Partly sunny.9 mph94%29.47 "Hg4 mi
11:00 AM50 °FBroken clouds.8 mph100%29.50 "Hg4 mi
10:30 AM50 °FLight rain. Broken clouds.9 mph100%29.50 "Hg4 mi
10:00 AM52 °FLight rain. Fog.12 mph94%29.50 "Hg2 mi
9:30 AM52 °FPartly sunny.14 mph88%29.50 "HgN/A
9:00 AM50 °FPartly sunny.14 mph100%29.50 "HgN/A
8:30 AM50 °FLight rain. Partly sunny.13 mph100%29.50 "Hg4 mi
8:00 AM50 °FLight rain. Fog.12 mph100%29.50 "Hg3 mi
7:30 AM50 °FPassing clouds.14 mph100%29.47 "HgN/A
7:00 AM50 °FLight rain. Passing clouds.15 mph100%29.47 "Hg4 mi
6:30 AM50 °FLight rain. Partly cloudy.14 mph100%29.47 "Hg5 mi
6:00 AM50 °FLight rain. Partly cloudy.15 mph100%29.47 "Hg4 mi
5:30 AM50 °FLight rain. Passing clouds.15 mph100%29.47 "Hg5 mi
5:00 AM50 °FLight rain. Passing clouds.15 mph100%29.47 "HgN/A
4:30 AM50 °FLight rain. Passing clouds.14 mph100%29.45 "HgN/A
4:00 AM50 °FLight rain. Passing clouds.14 mph100%29.45 "Hg5 mi
3:30 AM50 °FLight rain. Passing clouds.15 mph100%29.45 "Hg5 mi
3:00 AM50 °FLight rain. Passing clouds.15 mph100%29.45 "Hg5 mi
2:30 AM50 °FLight rain. Passing clouds.17 mph94%29.45 "Hg5 mi
2:00 AM50 °FLight rain. Passing clouds.15 mph94%29.45 "Hg5 mi
1:30 AM48 °FLight rain. Passing clouds.13 mph100%29.45 "Hg5 mi
1:00 AM48 °FLight rain. Passing clouds.14 mph100%29.45 "Hg4 mi
12:30 AM48 °FLight rain. Passing clouds.13 mph94%29.47 "Hg4 mi
12:00 AM48 °FLight rain. Passing clouds.12 mph94%29.47 "Hg5 mi
11:30 PM
Dec 18
48 °FLight rain. Passing clouds.12 mph94%29.47 "Hg5 mi
11:00 PM46 °FLight rain. Passing clouds.12 mph100%29.50 "Hg5 mi
10:30 PM46 °FLight rain. Passing clouds.13 mph100%29.50 "Hg5 mi
10:00 PM46 °FLight rain. Passing clouds.12 mph100%29.50 "Hg5 mi
9:30 PM46 °FLight rain. Passing clouds.13 mph93%29.53 "Hg5 mi
9:00 PM46 °FLight rain. Passing clouds.10 mph93%29.53 "Hg5 mi
8:30 PM46 °FLight rain. Passing clouds.10 mph93%29.56 "Hg4 mi
8:00 PM45 °FLight rain. Fog.10 mph100%29.56 "Hg2 mi
7:30 PM45 °FLight rain. Fog.12 mph93%29.56 "Hg3 mi
7:00 PM45 °FLight rain. Passing clouds.10 mph93%29.59 "Hg4 mi
6:30 PM45 °FLight rain. Passing clouds.12 mph93%29.59 "HgN/A
6:00 PM43 °FPartly cloudy.10 mph93%29.62 "HgN/A
5:30 PM45 °FPassing clouds.13 mph87%29.62 "HgN/A
5:00 PM45 °FPassing clouds.10 mph87%29.62 "HgN/A
4:30 PM43 °FPassing clouds.10 mph93%29.65 "HgN/A
4:00 PM43 °FPassing clouds.8 mph93%29.65 "HgN/A
3:30 PM43 °FPassing clouds.8 mph87%29.65 "HgN/A
3:00 PM43 °FScattered clouds.6 mph93%29.65 "HgN/A
Weather by CustomWeather, © 2014

See weather overviewHow to use our weather pages